Regional Weather Roundup
Issued by NWS

Home | Current Version | Previous Version | Graphics & Text | Print | Product List | Glossary On
Versions: 1 2 3 4 5 6 7 8 9 10 11 12 13 14 15 16 17 18 19 20 21 22 23 24 25 26 27 28 29 30 31 32 33 34 35 36 37 38 39 40 41 42 43 44 45 46 47 48 49 50
000
ASUS43 KOAX 211202
RWRNE

WEATHER ROUNDUP FOR NEBRASKA
NATIONAL WEATHER SERVICE OMAHA NE
700 AM CDT SUN SEP 21 2014

NOTES: SATELLITE DATA IS BEING USED TO AUGMENT CLOUD COVER ABOVE
       12000 FEET.
       "FAIR" INDICATES FEW OR NO CLOUDS BELOW 12,000 FEET WITH NO
       SIGNIFICANT WEATHER AND/OR OBSTRUCTIONS TO VISIBILITY.

  * THESE STATIONS DO NOT REPORT WEATHER SUCH AS RAIN...SNOW OR FOG.

NEZ001>004-019>022-054>056-211300-
NEBRASKA PANHANDLE

CITY           SKY/WX    TMP DP  RH WIND       PRES   REMARKS
SCOTTSBLUFF    MOCLDY    50  43  77 CALM      30.35S
6HR MIN TEMP:  49; 6HR MAX TEMP:  57;

ALLIANCE       PTCLDY    39  37  92 W3        30.35R
6HR MIN TEMP:  39; 6HR MAX TEMP:  46;

CHADRON        CLEAR     40  37  89 SW3       30.34R
6HR MIN TEMP:  39; 6HR MAX TEMP:  47;

KIMBALL        PTCLDY    49  40  72 CALM      30.36R
SIDNEY         PTCLDY    49  43  80 NW3       30.36S
6HR MIN TEMP:  49; 6HR MAX TEMP:  59;

$$

NEZ057>060-069>072-079>082-211300-
SOUTHWEST NEBRASKA

CITY           SKY/WX    TMP DP  RH WIND       PRES   REMARKS
NORTH PLATTE   CLEAR     42  40  92 CALM      30.30R
6HR MIN TEMP:  42; 6HR MAX TEMP:  54;

IMPERIAL       CLEAR     50  43  77 N6        30.31R
6HR MIN TEMP:  50; 6HR MAX TEMP:  57;

LEXINGTON      CLEAR     44  42  91 NW5       30.27R
MCCOOK         CLEAR     48  44  86 W3        30.28R
6HR MIN TEMP:  48; 6HR MAX TEMP:  60;

OGALLALA       CLEAR     53  47  82 NW3       30.32R
$$

NEZ005>010-023>029-035>040-094-211300-
NORTH CENTRAL NEBRASKA

CITY           SKY/WX    TMP DP  RH WIND       PRES   REMARKS
VALENTINE      CLEAR     43  38  82 NW9       30.30R
6HR MIN TEMP:  43; 6HR MAX TEMP:  52;

AINSWORTH      CLEAR     46  37  71 NW6       30.29R
BROKEN BOW     CLEAR     44  40  85 CALM      30.27R
6HR MIN TEMP:  44; 6HR MAX TEMP:  58;

O`NEILL        CLEAR     47  42  84 W6        30.25R
ORD            CLEAR     44  40  85 N3        30.25R
6HR MIN TEMP:  43; 6HR MAX TEMP:  53;

THEDFORD       CLEAR     45  40  83 W6        30.31R
$$

NEZ041-046>049-061>064-073>077-083>087-211300-
SOUTH CENTRAL NEBRASKA

CITY           SKY/WX    TMP DP  RH WIND       PRES   REMARKS
GRAND ISLAND   CLEAR     48  42  80 NW6       30.24R
6HR MIN TEMP:  48; 6HR MAX TEMP:  57;

AURORA         CLEAR     47  44  88 NW5       30.22R
HASTINGS       CLEAR     50  43  77 N6        30.23R
6HR MIN TEMP:  50; 6HR MAX TEMP:  58;

HEBRON         CLEAR     51  47  83 N6        30.20R
HOLDREGE       CLEAR     48  44  85 CALM      30.25R
KEARNEY *      CLEAR     50  41  71 NW9       30.25R
YORK           CLEAR     48  46  93 NW8       30.21R
$$

NEZ011>018-030>034-042>045-211300-
NORTHEAST NEBRASKA

CITY           SKY/WX    TMP DP  RH WIND       PRES   REMARKS
NORFOLK        CLEAR     49  43  80 W6        30.20R
6HR MIN TEMP:  49; 6HR MAX TEMP:  56;

ALBION         CLEAR     45  40  83 NW5       30.22R
BLAIR          CLEAR     55  46  74 NW8       30.14R
COLUMBUS *     CLEAR     48  43  81 W5        30.21R
FREMONT        CLEAR     49  46  90 W5        30.16R
TEKAMAH        CLEAR     55  45  68 NW14      30.14R
6HR MIN TEMP:  53; 6HR MAX TEMP:  58;

WAYNE          CLEAR     49  45  83 NW7       30.19R
$$

NEZ050>053-065>068-078-088>093-211300-
SOUTHEAST NEBRASKA

CITY           SKY/WX    TMP DP  RH WIND       PRES   REMARKS
LINCOLN        CLEAR     50  46  86 CALM      30.19R
6HR MIN TEMP:  50; 6HR MAX TEMP:  64;

OMAHA EPPLEY   CLEAR     56  46  69 W7        30.15R
6HR MIN TEMP:  53; 6HR MAX TEMP:  62;

BEATRICE       CLEAR     50  49  93 N3        30.18R
FALLS CITY     CLEAR     55  53  93 W8        30.13R
6HR MIN TEMP:  55; 6HR MAX TEMP:  67;

NEBRASKA CITY    N/A     56  47  72 NW10      30.15R
PLATTSMOUTH    CLEAR     54  49  83 W8        30.15R
$$

NEZ044-045-051>053-067-211300-
OMAHA AREA

CITY           SKY/WX    TMP DP  RH WIND       PRES   REMARKS
OMAHA EPPLEY   CLEAR     56  46  69 W7        30.15R
6HR MIN TEMP:  53; 6HR MAX TEMP:  62;

BLAIR          CLEAR     55  46  74 NW8       30.14R
FREMONT        CLEAR     49  46  90 W5        30.16R
MILLARD        CLEAR     56  48  74 W7        30.15R
OFFUTT AFB     CLEAR     53  52  99 NW9       30.14R
PLATTSMOUTH    CLEAR     54  49  83 W8        30.15R
WAHOO          FAIR      55  46  69 NW7       30.17R
$$



USA.gov is the U.S. government's official web portal to all federal, state and local government web resources and services.